Weather History for Penticton, BC

Change the Weather History Date:

Monday, May 27, 2013

  Actual Average Record
Temperature  
Mean Temperature 58 °F -  
Max Temperature 67 °F 76 °F 84 °F (2005)
Min Temperature 50 °F 49 °F 38 °F (2012)
Degree Days  
Heating Degree Days 6    
Growing Degree Days 8 (Base 50)    
Moisture  
Dew Point 48 °F    
Average Humidity 73    
Maximum Humidity 94    
Minimum Humidity 39    
Precipitation  
Precipitation 0.04 in 0.04 in - ()
Sea Level Pressure  
Sea Level Pressure 29.83 in    
Wind  
Wind Speed 8 mph ()    
Max Wind Speed 18 mph    
Max Gust Speed 30 mph    
Visibility 15.0 miles    
Events Rain    
Averages and records for this station are not official NWS values.
T = Trace of Precipitation, MM = Missing Value Source: Averaged Metar Reports

Daily Weather History Graph

Daily Weather History Graph

Search for Another Location

Airport:

Trip Planner

Search our weather history database for the weather conditions in past years. The results will help you decide how hot, cold, wet, or windy it might be!

Date:

Astronomy

May. 27, 2013 Rise Set
Actual Time 5:00 AM PDT 8:51 PM PDT
Civil Twilight 4:19 AM PDT 9:32 PM PDT
Nautical Twilight 3:22 AM PDT 10:29 PM PDT
Astronomical Twilight 1:54 AM PDT 12:00 AM PDT
Moon 11:26 PM PDT (5/27) 7:48 AM PDT (5/27)
Length of Visible Light 17h 13m
Length of Day
15h 51m
Waning Gibbous, 90% of the Moon is Illuminated
May 27
Waning Gibbous
May 31
Last Quarter
Jun 8
New
Jun 16
First Quarter
Jun 23
Full

Hourly Weather History & Observations

Time (PDT) Temp. Dew Point Humidity Pressure Visibility Wind Dir Wind Speed Gust Speed Precip Events Conditions
12:00 AM 55.4 °F 48.2 °F 77% 29.93 in 15.0 mi North 8.1 mph - N/A   Mostly Cloudy
1:00 AM 55.4 °F 48.2 °F 77% 29.92 in 15.0 mi NNW 8.1 mph - N/A   Mostly Cloudy
2:00 AM 53.6 °F 48.2 °F 82% 29.92 in 15.0 mi NNW 8.1 mph - N/A   Mostly Cloudy
3:00 AM 51.8 °F 50.0 °F 94% 29.91 in 15.0 mi NNW 8.1 mph - N/A   Mostly Cloudy
3:52 AM 51.8 °F 50.0 °F 94% 29.91 in 15.0 mi NNW 5.8 mph - N/A Rain Light Rain
4:00 AM 51.8 °F 50.0 °F 94% 29.91 in 15.0 mi North 8.1 mph - N/A Rain Light Rain
5:00 AM 51 °F 49 °F 90% 29.90 in 15 mi North 5.8 mph - - Rain Light Rain
5:00 AM 51.8 °F 48.2 °F 88% 29.90 in 15.0 mi North 4.6 mph - N/A Rain Light Rain
5:31 AM 51.8 °F 48.2 °F 88% 29.89 in 15.0 mi NNW 6.9 mph - N/A   Mostly Cloudy
6:00 AM 51.8 °F 48.2 °F 88% 29.89 in 15.0 mi NW 5.8 mph - N/A   Mostly Cloudy
7:00 AM 51.8 °F 48.2 °F 88% 29.90 in 15.0 mi Variable 2.3 mph - N/A   Overcast
7:14 AM 51.8 °F 50.0 °F 94% 29.89 in 15.0 mi WNW 4.6 mph - N/A Rain Light Rain Showers
7:35 AM 53.6 °F 50.0 °F 88% 29.89 in 15.0 mi NW 4.6 mph - N/A   Overcast
8:00 AM 53.6 °F 48.2 °F 82% 29.88 in 15.0 mi NW 5.8 mph - N/A   Overcast
9:00 AM 53.6 °F 50.0 °F 88% 29.87 in 15.0 mi NNW 5.8 mph - N/A   Overcast
10:00 AM 57.2 °F 50.0 °F 77% 29.85 in 15.0 mi NNW 9.2 mph - N/A   Overcast
11:00 AM 59 °F 50 °F 63% 29.83 in 15 mi NNW 8.1 mph - -   Overcast
11:00 AM 59.0 °F 50.0 °F 72% 29.83 in 15.0 mi North 6.9 mph - N/A   Overcast
12:00 PM 59.0 °F 50.0 °F 72% 29.81 in 15.0 mi North 10.4 mph - N/A   Overcast
1:00 PM 60.8 °F 50.0 °F 68% 29.77 in 15.0 mi North 10.4 mph - N/A   Overcast
2:00 PM 64.4 °F 48.2 °F 56% 29.76 in 15.0 mi Variable 2.3 mph - N/A   Overcast
2:05 PM 66.2 °F 42.8 °F 43% 29.75 in 15.0 mi Variable 13.8 mph - N/A   Overcast
3:00 PM 66.2 °F 42.8 °F 43% 29.73 in 15.0 mi South 18.4 mph 29.9 mph N/A   Overcast
4:00 PM 66.2 °F 42.8 °F 43% 29.74 in 15.0 mi South 16.1 mph 25.3 mph N/A   Overcast
5:00 PM 63 °F 44 °F 39% 29.75 in 15 mi SSE 15.0 mph - - Rain Light Rain Showers
5:00 PM 62.6 °F 44.6 °F 52% 29.75 in 15.0 mi South 16.1 mph 24.2 mph N/A Rain Light Rain Showers
6:00 PM 62.6 °F 42.8 °F 48% 29.75 in 15.0 mi South 17.3 mph - N/A Rain Light Rain Showers
7:00 PM 62.6 °F 42.8 °F 48% 29.75 in 15.0 mi South 15.0 mph - N/A Rain Light Rain Showers
8:00 PM 59.0 °F 44.6 °F 59% 29.77 in 15.0 mi South 15.0 mph 20.7 mph N/A   Overcast
9:00 PM 55.4 °F 48.2 °F 77% 29.78 in 15.0 mi South 11.5 mph 18.4 mph N/A Rain Light Rain Showers
10:00 PM 53.6 °F 48.2 °F 82% 29.79 in 15.0 mi South 12.7 mph - N/A Rain Light Rain Showers
11:00 PM 54 °F 48 °F 75% 29.79 in 15 mi South 6.9 mph - - Rain Light Rain Showers
11:00 PM 53.6 °F 48.2 °F 82% 29.79 in 15.0 mi SSE 6.9 mph - N/A Rain Light Rain Showers